Flag for Australia Weather past 2 weeks in Townsville, Queensland, Australia

Now
84 °F

Passing clouds.


Feels Like: 94 °F
Forecast: 78 / 90 °F
Wind: 7 mph from North

Location: Townsville Amo

Current Time: Jan 27, 2015 at 11:19:10 PM

Latest Report: Jan 27, 2015 at 11:00 PM


Visibility: N/A

Pressure: 29.59 "Hg

Humidity: 79%

Dew point: 77 °F

Location of TownsvilleLocation

Historic Weather in Townsville — Graph

°F

Townsville temperature yesterday

Maximum temperature yesterday: 93 °F (at 1:00 PM)
Minimum temperature yesterday: 75 °F (at 6:00 AM)
Average temperature yesterday: 84 °F

Past Weeks' High & Low Weather Summary

 TemperatureHumidityPressure
High97 °F (Jan 27, 12:00 PM)100% (Jan 17, 9:00 PM)29.86 "Hg (Jan 17, 9:00 PM)
Low72 °F (Jan 19, 7:00 PM)37% (Jan 27, 12:00 PM)29.47 "Hg (Jan 27, 3:30 PM)
Average84 °F76%29.70 "Hg
* Reported Jan 12 10:00 PM — Jan 27 10:00 PM, Townsville, Weather by CustomWeather, © 2014

Note: Actual official high and low records may vary slightly from our data, if they occured in-between our weather recording intervals... More about our weather records

Advertising

Townsville weather history for previous 24 hours

 ConditionsComfort  
Time TempWeatherWind HumidityBarometerVisibility
10:00 PM
Jan 27
84 °FPassing clouds.2 mph79%29.59 "HgN/A
9:30 PM84 °FPassing clouds.7 mph79%29.59 "HgN/A
9:00 PM86 °FPassing clouds.6 mph75%29.59 "HgN/A
8:30 PM86 °FPassing clouds.9 mph75%29.59 "HgN/A
8:00 PM86 °FPassing clouds.8 mph75%29.56 "HgN/A
7:30 PM86 °FPassing clouds.13 mph75%29.56 "HgN/A
7:00 PM88 °FPassing clouds.13 mph66%29.53 "HgN/A
6:00 PM90 °FScattered clouds.15 mph55%29.50 "HgN/A
5:00 PM91 °FScattered clouds.14 mph56%29.47 "HgN/A
4:30 PM91 °FScattered clouds.17 mph56%29.47 "HgN/A
4:00 PM91 °FScattered clouds.16 mph59%29.47 "HgN/A
3:30 PM93 °FScattered clouds.13 mph56%29.47 "HgN/A
3:00 PM95 °FScattered clouds.12 mph47%29.50 "HgN/A
2:30 PM95 °FPartly sunny.10 mph47%29.50 "HgN/A
2:00 PM95 °FPartly sunny.10 mph50%29.53 "HgN/A
1:30 PM93 °FPartly sunny.12 mph56%29.53 "HgN/A
1:00 PM95 °FPartly sunny.8 mph53%29.53 "HgN/A
12:30 PM95 °FPartly sunny.7 mph41%29.56 "HgN/A
12:00 PM97 °FPartly sunny.6 mph37%29.56 "HgN/A
11:30 AM95 °FPartly sunny.9 mph39%29.59 "HgN/A
11:00 AM93 °FScattered clouds.9 mph41%29.59 "HgN/A
10:30 AM93 °FPartly sunny.10 mph41%29.59 "HgN/A
10:00 AM93 °FPartly sunny.14 mph44%29.59 "HgN/A
9:30 AM91 °FPartly sunny.15 mph49%29.59 "HgN/A
9:00 AM91 °FPartly sunny.12 mph49%29.59 "HgN/A
8:30 AM90 °FPartly sunny.10 mph49%29.59 "HgN/A
8:00 AM88 °FSunny.8 mph55%29.62 "Hg10 mi
7:30 AM88 °FSunny.3 mph66%29.59 "Hg10 mi
7:00 AM86 °FPartly sunny.2 mph75%29.59 "HgN/A
6:30 AM84 °FPartly sunny.No wind84%29.59 "HgN/A
6:00 AM82 °FSunny.No wind89%29.59 "HgN/A
5:00 AM84 °FClear.No wind84%29.56 "HgN/A
4:00 AM84 °FClear.No wind84%29.56 "HgN/A
3:30 AM84 °FClear.No wind89%29.59 "HgN/A
3:00 AM84 °FClear.No wind89%29.59 "HgN/A
2:00 AM84 °FClear.6 mph89%29.59 "HgN/A
1:00 AM84 °FClear.6 mph84%29.62 "HgN/A
12:00 AM84 °FClear.1 mph84%29.65 "HgN/A
11:00 PM
Jan 26
84 °FClear.5 mph84%29.65 "HgN/A
Weather by CustomWeather, © 2014

See weather overviewHow to use our weather pages